Showing default

IRIDE-MS2-HEO-8, 64587

Orbit data source: Space-Track

IRIDE-MS2-HEO-8, 64587 is an Italian payload satellite in SSO that was launched on Mon, 23 Jun 2025 UTC via an FALCON 9 launch vehicle from the Air Force Western Test Range (AFWTR). Payload-class satellites include a variety of spacecraft equipped with specific instruments for various scientific and technological missions. These include communications satellites like Starlink; space stations such as the ISS; scientific satellites like the Hubble; Earth observation satellites from companies like Planet Labs, Umbra, and HawkEye 360; GPS; miniature CubeSats for education and research; and military/defense satellites.

Loading next visibility...
Identifier
64587, 2025-135BM
Orbit
SSO
Country
Flag of ITIT
Related business
Manufacturer
ArgoTec
Mission
Operational Civil Imaging
Bus & Motor
HAWK, Unknown motor
Mass
65 kg wet, 65 kg dry
Launch date (UTC)
2025-06-23 (1 year ago)
Launch vehicle
FALCON 9
Launch site
Air Force Western Test Range (AFWTR)
Object type
Payload
Rocket body
Debris
Shape & HBR
Box + 2 Pan, 3.0 m
Radar Cross Section
0.683 m², Medium (>0.1 m² and < 1m²)

Expand to show TLE details & history
Last TLE update: 15 hours ago

TLE from 15 hours ago
0 IRIDE-MS2-HEO-8
1 64587U 25135BM  26207.57494922  .00001831  00000-0  18633-3 0  9992
2 64587  97.7768 321.5369 0001402 159.0746 201.0530 14.91971348 59770
Epoch: 2026-07-26T13:47Z
TLE epoch observation values (Epoch: 2026-07-26T13:47:55.612Z)
Latitude
-0.00007°
Longitude
170.28428°
Altitude
595.743 km
Speed
7.561 km/s
True Right ascension
21h 26m 08s
True Declination
0° 00' 00"
Sunlit
Object was in full shadow at epoch
Visualization orbit readout
Latitude
Unknown
Longitude
Unknown
Altitude
Unknown
Speed
Unknown
Apparent Right ascension
Unknown
Apparent Declination
Unknown
Sunlit
N/A
Visualization observer readout
Local Sidereal Time
18:21:06
Azimuth
Unknown
Elevation
Unknown
Doppler factor
Unknown
Orbital elements
Apogee altitude
589.785 km
Perigee altitude
587.832 km
Semi-major axis
6,966.946 km
Eccentricity
0.00014
Inclination
97.7768°
RAAN
321.5369°
Arg. of periapsis
159.0746°
True anomaly
201.04723°
Mean anomaly
201.053°
Eccentric anomaly
201.05011°
Mean motion
3.73233 °/min
Orbital period
96.45 mins
BSTAR
0.00018633
Loading maneuver chart data...
Computing Atmospheric mass density...
Loading historical data...
Loading historical data...
Loading historical data...
Loading historical data...
Loading historical data...
Loading historical data...
Loading historical data...

Documentation

Showing up to 5 results
|